Terminal Aerodrome Forecast
Issued by NWS

Home | Current Version | Previous Version | Text Only | Print | Product List | Glossary On
Versions: 1 2 3 4 5 6 7 8 9 10 11 12 13 14 15 16 17 18 19 20
000
FTAK31 PANC 222340
TAFAEN
TAF
PAEN 222340Z 2300/2324 02007KT P6SM SCT035 BKN100
     FM232100 03015KT P6SM VCSH SCT030 OVC050=

USA.gov is the U.S. government's official web portal to all federal, state and local government web resources and services.